"Pseudo-MPEC" for P222k0Y

Created 2024 Dec 1 12:31:27 UT using Find_Orb

Click here for an explanation of pseudo-MPECs

 
 Astrometry: 
     P222k0Y  C2024 11 22.26906900 52 08.617-15 51 03.37   ~BPLV 22.56GVNEOCPF51
     P222k0Y  C2024 11 22.28081600 52 06.903-15 50 26.46   ~BPLV 21.47GVNEOCPF51
     P222k0Y  C2024 11 22.29254200 52 05.213-15 49 50.25   ~BPLV 21.50GVNEOCPF51
     P222k0Y  C2024 11 22.30426300 52 03.482-15 49 12.99   ~BPLV 21.49GVNEOCPF51
     P222k0Y* C2024 11 24.25689400 47 45.570-14 05 39.84   ~BO92 22.12wXNEOCPF52
     P222k0Y  C2024 11 24.26844800 47 43.965-14 05 02.06   ~BO92 21.87wXNEOCPF52
     P222k0Y  C2024 11 24.28000200 47 42.412-14 04 24.97   ~BO92 21.57wXNEOCPF52
     P222k0Y  C2024 11 24.29156900 47 40.817-14 03 47.95   ~BO92 21.35wXNEOCPF52
     P222k0Y |C2024 11 25.07273000 46 01.930-13 21 01.00   ~BP3H 21.6 GVNEOCP807
     P222k0Y |C2024 11 25.07828000 46 01.210-13 20 42.80   ~BP3H 21.7 GVNEOCP807
     P222k0Y |C2024 11 25.08383000 46 00.470-13 20 24.50   ~BP3H 21.8 GVNEOCP807
     P222k0Y |C2024 11 26.06499000 44 00.430-12 26 19.80   ~BQ2l 21.5 GVNEOCP807
     P222k0Y |C2024 11 26.07069000 43 59.690-12 26 00.70   ~BQ2l 21.6 GVNEOCP807
     P222k0Y |C2024 11 26.07640000 43 58.960-12 25 41.70   ~BQ2l 21.6 GVNEOCP807
     P222k0Y KC2024 12 01.20493200 34 40.303-07 32 09.53   ~C15V       VNEOCPV06
     P222k0Y KC2024 12 01.20825600 34 40.033-07 31 58.01   ~C15V 22.19GVNEOCPV06
     P222k0Y KC2024 12 01.21158000 34 39.695-07 31 46.38   ~C15V 22.15GVNEOCPV06
     P222k0Y KC2024 12 01.21490200 34 39.317-07 31 34.57   ~C15V 22.44GVNEOCPV06

Station data:
(807) Cerro Tololo Observatory, La Serena  (S30.169133 W70.805900)  Chile.
   Observer R. Holmes. 0.61-m f/6.5 astrograph + CCD.
(F51) Pan-STARRS 1, Haleakala  (N20.707234 W156.255910)  US/Hawaii.
   Observers J. Bulger, T. Lowe, A. Schultz, M. Willman. Measurers K.
   Chambers, S. Chastel, T. de Boer, L. Denneau, J. Fairlamb, H. Flewelling,
   M. Huber, C.-C. Lin, E. Magnier, Y. Ramanjooloo, R. Wainscoat, R. Weryk.
   1.8-m Ritchey-Chrétien + CCD.
(F52) Pan-STARRS 2, Haleakala  (N20.707382 W156.255910)  US/Hawaii.
   Observers J. Bulger, T. Dukes, T. Lowe, A. Schultz, M. Willman. Measurers
   K. Chambers, S. Chastel, T. de Boer, L. Denneau, J. Fairlamb, H.
   Flewelling, M. Huber, C.-C. Lin, E. Magnier, Y. Ramanjooloo, R. Wainscoat,
   R. Weryk. 1.8-m Ritchey-Chrétien + CCD.
(V06) Catalina Sky Survey-Kuiper  (N32.416871 W110.732550)  US/Arizona.
   Observers T. A. Pruyne, B. M. Africano, E. J. Christensen, G. A. Farneth,
   D. C. Fuls, A. R. Gibbs, A. D. Grauer, H. Gröller, J. A. Johnson, R. A.
   Kowalski, S. M. Larson, G. J. Leonard, D. Rankin, R. L. Seaman, F. C.
   Shelly, K. W. Wierzchoś. 1.55-m reflector + CCD.

Orbital elements:  P222k0Y
   Perihelion 2025 Jan 30.67034 +/- 0.0232 TT = 16:05:17 (JD 2460706.17034)
Epoch 2024 Dec  1.0 TT = JDT 2460645.5   Earth MOID: 0.1578      AutoNEOCP
M 331.98799216 +/- 0.057            (J2000 ecliptic)
n   0.46170845 +/- 0.000782         Peri.   50.14647 +/- 0.028
a   1.65789682 +/- 0.00187          Node    59.93884 +/- 0.019
e   0.3638823 +/- 0.000572          Incl.   23.94603 +/- 0.028
P   2.135/779.698d         H 21.85  G  0.15   U  7.9
q 1.05461745 +/- 0.000245    Q 2.26117619 +/- 0.0035
From 18 observations 2024 Nov. 22-Dec. 1; mean residual 0".24
Residuals in arcseconds: 
241122 F51  .04+  .19-    241124 F52  .21+  .02+    241126 807  .14-  .17+    
241122 F51  .05-  .11+    241124 F52  .07+  .42-    241126 807  .09-  .12+    
241122 F51  .17+  .26-    241125 807  .22-  .21+    241201 V06  .82-  .20+    
241122 F51  .21-  .39+    241125 807  .03+  .18+    241201 V06  .33+  .03-    
241124 F52  .08+  .11-    241125 807  .01-  .23+    241201 V06  .47+  .15-    
241124 F52  .24-  .32+    241126 807  .04-  .08+    241201 V06  .01+  .09-    

Ephemerides (geocentric):
Date (UTC) HH   RA             Dec           delta  r     elong  mag " sig PA
---- --------  ------------   ------------  ------ ------ -----  --- --------
2024 12 01 13  00 34 08.349   -07 12 05.96  .39385 1.2068 115.1 22.0 .191  60
2024 12 01 14  00 34 04.359   -07 09 38.52  .39386 1.2066 115.0 22.0 .195  60
2024 12 01 15  00 34 00.376   -07 07 11.04  .39387 1.2064 115.0 22.0 .200  60
2024 12 01 16  00 33 56.400   -07 04 43.50  .39389 1.2063 115.0 22.0 .204  60
2024 12 01 17  00 33 52.433   -07 02 15.92  .39390 1.2061 114.9 22.0 .209  60
2024 12 01 18  00 33 48.473   -06 59 48.30  .39391 1.2059 114.9 22.0 .213  60
2024 12 01 19  00 33 44.522   -06 57 20.62  .39392 1.2057 114.8 22.0 .218  60
2024 12 01 20  00 33 40.577   -06 54 52.90  .39394 1.2055 114.8 22.0 .222  60
2024 12 01 21  00 33 36.641   -06 52 25.14  .39395 1.2053 114.8 22.0 .227  60
2024 12 01 22  00 33 32.713   -06 49 57.32  .39396 1.2052 114.7 22.0 .232  60
2024 12 01 23  00 33 28.792   -06 47 29.46  .39398 1.2050 114.7 22.0 .236  60
2024 12 02 00  00 33 24.879   -06 45 01.56  .39399 1.2048 114.7 22.0 .241  60
2024 12 02 01  00 33 20.973   -06 42 33.61  .39401 1.2046 114.6 22.0 .246  60
2024 12 02 02  00 33 17.076   -06 40 05.62  .39402 1.2044 114.6 22.0 .251  60
2024 12 02 03  00 33 13.186   -06 37 37.58  .39404 1.2042 114.6 22.0 .256  60
2024 12 02 04  00 33 09.304   -06 35 09.49  .39405 1.2040 114.5 22.0 .260  60
2024 12 02 05  00 33 05.430   -06 32 41.37  .39407 1.2039 114.5 22.0 .265  60
2024 12 02 06  00 33 01.563   -06 30 13.19  .39408 1.2037 114.4 22.0 .270  60
2024 12 02 07  00 32 57.705   -06 27 44.98  .39410 1.2035 114.4 22.0 .275  60
2024 12 02 08  00 32 53.854   -06 25 16.72  .39411 1.2033 114.4 22.0 .280  60
2024 12 02 09  00 32 50.011   -06 22 48.42  .39413 1.2031 114.3 22.0 .285  60
2024 12 02 10  00 32 46.175   -06 20 20.07  .39414 1.2029 114.3 22.0 .290  60
2024 12 02 11  00 32 42.347   -06 17 51.68  .39416 1.2028 114.3 22.0 .295  60
2024 12 02 12  00 32 38.527   -06 15 23.25  .39418 1.2026 114.2 22.0 .300  60
2024 12 02 13  00 32 34.715   -06 12 54.78  .39419 1.2024 114.2 22.0 .305  60
2024 12 02 14  00 32 30.911   -06 10 26.26  .39421 1.2022 114.1 22.0 .311  60
2024 12 02 15  00 32 27.114   -06 07 57.71  .39423 1.2020 114.1 22.0 .316  60
2024 12 02 16  00 32 23.325   -06 05 29.11  .39425 1.2018 114.1 22.1 .321  60
2024 12 02 17  00 32 19.544   -06 03 00.47  .39426 1.2017 114.0 22.1 .326  60
2024 12 02 18  00 32 15.770   -06 00 31.79  .39428 1.2015 114.0 22.1 .331  60
2024 12 02 19  00 32 12.004   -05 58 03.07  .39430 1.2013 114.0 22.1 .337  60
2024 12 02 20  00 32 08.246   -05 55 34.31  .39432 1.2011 113.9 22.1 .342  60
2024 12 02 21  00 32 04.496   -05 53 05.50  .39434 1.2009 113.9 22.1 .347  60
2024 12 02 22  00 32 00.753   -05 50 36.66  .39436 1.2008 113.9 22.1 .353  60
2024 12 02 23  00 31 57.018   -05 48 07.78  .39437 1.2006 113.8 22.1 .358  60
2024 12 03 00  00 31 53.291   -05 45 38.86  .39439 1.2004 113.8 22.1 .364  60
2024 12 03 01  00 31 49.571   -05 43 09.90  .39441 1.2002 113.7 22.1 .369  60
2024 12 03 02  00 31 45.860   -05 40 40.90  .39443 1.2000 113.7 22.1 .375  60
2024 12 03 03  00 31 42.155   -05 38 11.86  .39445 1.1998 113.7 22.1 .380  60
2024 12 03 04  00 31 38.459   -05 35 42.78  .39447 1.1997 113.6 22.1 .386  60
2024 12 03 05  00 31 34.770   -05 33 13.67  .39449 1.1995 113.6 22.1 .391  60
2024 12 03 06  00 31 31.089   -05 30 44.52  .39451 1.1993 113.6 22.1 .397  60
2024 12 03 07  00 31 27.416   -05 28 15.32  .39453 1.1991 113.5 22.1 .402  60
2024 12 03 08  00 31 23.751   -05 25 46.10  .39456 1.1989 113.5 22.1 .408  60
2024 12 03 09  00 31 20.093   -05 23 16.83  .39458 1.1987 113.5 22.1 .414  60
2024 12 03 10  00 31 16.443   -05 20 47.53  .39460 1.1986 113.4 22.1 .419  60
2024 12 03 11  00 31 12.800   -05 18 18.19  .39462 1.1984 113.4 22.1 .425  60
2024 12 03 12  00 31 09.165   -05 15 48.81  .39464 1.1982 113.3 22.1 .431  60